FW0047 Weather Reports


time (UTC)temp
C
wind
direction
speed
KPH
gust
KPH
rain 1hr
cm
rain 24hr
cm
rain mn
cm
humidity
%
barometer
mb
20260505065502 11 205 14.5 19.3 0.00 0.03 0.03 97 1013.5
20260505065000 11 192 11.3 14.5 0.00 0.03 0.03 97 1013.5
20260505064503 11 208 8.0 14.5 0.00 0.03 0.03 97 1013.6
20260505064002 11 193 6.4 14.5 0.03 0.03 0.03 97 1013.6
20260505063604 11 205 8.0 14.5 0.03 0.03 0.03 97 1013.5
20260505063502 11 195 4.8 14.5 0.03 0.03 0.03 97 1013.6
20260505063101 11 158 3.2 8.0 0.03 0.03 0.03 97 1013.6
20260505062600 11 148 3.2 11.3 0.03 0.03 0.03 97 1013.6
20260505062059 11 148 4.8 12.9 0.03 0.03 0.03 97 1013.5
20260505061608 11 159 3.2 12.9 0.03 0.03 0.03 97 1013.5
20260505061059 11 154 6.4 14.5 0.03 0.03 0.03 97 1013.5
20260505060559 11 161 6.4 14.5 0.03 0.03 0.03 97 1013.6
20260505060104 11 163 6.4 12.9 0.03 0.03 0.03 96 1013.6
20260505055600 11 182 4.8 12.9 0.03 0.03 0.03 96 1013.6
20260505055103 11 194 3.2 11.3 0.03 0.03 0.03 96 1013.6
20260505054601 11 186 4.8 11.3 0.03 0.03 0.03 96 1013.6
20260505054059 11 184 6.4 12.9 0.00 0.00 0.00 96 1013.6
20260505053558 11 169 8.0 14.5 0.00 0.00 0.00 96 1013.6
20260505053100 11 202 8.0 14.5 0.00 0.00 0.00 96 1013.6
20260505052558 11 198 8.0 14.5 0.00 0.00 0.00 96 1013.5
20260505052058 11 198 8.0 14.5 0.00 0.00 0.00 96 1013.6
20260505051558 11 174 8.0 14.5 0.00 0.00 0.00 96 1013.7
20260505051058 11 197 6.4 11.3 0.00 0.00 0.00 96 1013.7
20260505050558 11 174 4.8 9.7 0.00 0.00 0.00 96 1013.7
20260505041604 11 180 8.0 14.5 0.00 0.00 0.00 96 1013.4
20260505041056 11 169 8.0 14.5 0.00 0.00 0.00 95 1013.3
20260505040558 11 188 8.0 20.9 0.00 0.00 0.00 95 1013.3
20260505040058 11 179 9.7 20.9 0.00 0.00 0.00 95 1013.2
20260505035556 11 190 14.5 19.3 0.00 0.00 0.00 95 1013.1
20260505035055 11 207 11.3 17.7 0.00 0.00 0.00 95 1013.1
20260505034556 11 193 12.9 16.1 0.00 0.00 0.00 95 1013.1
20260505034056 11 197 9.7 14.5 0.00 0.00 0.00 95 1012.9
20260505033555 11 208 4.8 12.9 0.00 0.00 0.00 95 1012.8
20260505033055 11 180 6.4 12.9 0.00 0.00 0.00 95 1012.8
20260505032554 11 169 4.8 11.3 0.00 0.00 0.00 95 1012.8
20260505032054 11 172 6.4 14.5 0.00 0.00 0.00 95 1012.7
20260505031555 11 188 8.0 16.1 0.00 0.00 0.00 95 1012.7
20260505031054 11 192 8.0 16.1 0.00 0.00 0.00 95 1012.7
20260505030554 11 182 8.0 16.1 0.00 0.00 0.00 95 1012.6
20260505030111 12 190 8.0 16.1 0.00 0.00 0.00 95 1012.5
20260505025554 12 190 11.3 16.1 0.00 0.00 0.00 94 1012.6
20260505025058 12 185 12.9 16.1 0.00 0.00 0.00 94 1012.6
20260505024559 12 171 9.7 14.5 0.00 0.00 0.00 94 1012.5
20260505024054 12 211 8.0 16.1 0.00 0.00 0.00 94 1012.5
20260505023553 12 204 9.7 16.1 0.00 0.00 0.00 94 1012.6
20260505023054 12 198 9.7 16.1 0.00 0.00 0.00 94 1012.6
20260505022553 12 180 6.4 16.1 0.00 0.00 0.00 94 1012.7
20260505022057 12 188 9.7 19.3 0.00 0.00 0.00 94 1012.8
20260505021553 12 202 14.5 19.3 0.00 0.00 0.00 94 1012.8
20260505021053 12 196 14.5 17.7 0.00 0.00 0.00 93 1012.8
20260505020553 12 198 6.4 19.3 0.00 0.00 0.00 94 1012.8
20260505020058 12 212 12.9 19.3 0.00 0.00 0.00 93 1012.8
20260505015553 12 213 12.9 17.7 0.00 0.00 0.00 93 1012.9
20260505015053 12 198 11.3 17.7 0.00 0.00 0.00 93 1012.8
20260505014607 12 163 11.3 19.3 0.00 0.00 0.00 93 1012.8
20260505014055 12 190 11.3 24.1 0.00 0.00 0.00 94 1012.8
20260505013551 12 175 14.5 24.1 0.00 0.00 0.00 93 1012.8
20260505013054 12 175 16.1 20.9 0.00 0.00 0.00 93 1012.9
20260505012551 12 184 11.3 19.3 0.00 0.00 0.00 94 1012.9
20260505012051 12 200 11.3 22.5 0.00 0.00 0.00 94 1012.9
20260505011556 12 192 12.9 20.9 0.00 0.00 0.00 94 1013.0
20260505011054 12 218 14.5 22.5 0.00 0.00 0.00 94 1013.1
20260505010550 12 200 16.1 22.5 0.00 0.00 0.00 94 1013.1
20260505010058 12 210 14.5 20.9 0.00 0.00 0.00 94 1013.1
20260505005554 12 192 12.9 22.5 0.00 0.00 0.00 94 1013.1
20260505005051 12 190 12.9 22.5 0.00 0.00 0.00 94 1013.1
20260505004552 12 201 11.3 20.9 0.00 0.00 0.00 95 1013.1
20260505004049 12 199 11.3 19.3 0.00 0.00 0.00 95 1013.1
20260505003550 12 200 12.9 19.3 0.00 0.00 0.00 94 1013.1
20260505003057 12 169 9.7 19.3 0.00 0.00 0.00 95 1013.1
20260505002549 12 196 11.3 19.3 0.00 0.00 0.00 95 1013.2
20260505002049 12 202 11.3 17.7 0.00 0.00 0.00 95 1013.2
20260505001549 12 202 8.0 17.7 0.00 0.00 0.00 95 1013.2
20260505001048 12 203 12.9 22.5 0.00 0.00 0.00 95 1013.2
20260505000548 12 205 8.0 22.5 0.00 0.00 0.00 95 1013.3
20260505000053 12 198 9.7 17.7 0.00 0.00 0.00 95 1013.5
20260504235549 12 198 8.0 19.3 0.00 0.00 0.00 95 1013.5
20260504235048 12 184 6.4 19.3 0.00 0.00 0.00 95 1013.5
20260504234548 12 199 9.7 19.3 0.00 0.00 0.00 95 1013.5
20260504234047 12 194 8.0 17.7 0.00 0.00 0.00 95 1013.5
20260504233548 12 215 9.7 17.7 0.00 0.00 0.00 95 1013.5
20260504233049 12 209 8.0 17.7 0.00 0.00 0.00 95 1013.5
20260504232546 12 200 6.4 19.3 0.00 0.00 0.00 95 1013.5
20260504232047 12 149 8.0 19.3 0.00 0.00 0.00 95 1013.5
20260504231546 12 198 9.7 17.7 0.00 0.00 0.00 95 1013.5
20260504231046 12 217 9.7 22.5 0.00 0.00 0.00 95 1013.5
20260504230547 12 192 8.0 20.9 0.00 0.00 0.00 95 1013.6
20260504230046 12 215 9.7 22.5 0.00 0.00 0.00 95 1013.6
20260504225547 12 188 9.7 27.4 0.00 0.00 0.00 95 1013.5
20260504225045 12 293 9.7 27.4 0.00 0.00 0.00 95 1013.5
20260504224545 12 192 14.5 27.4 0.00 0.00 0.00 96 1013.5
20260504224048 12 225 14.5 25.7 0.00 0.00 0.00 95 1013.6
20260504223545 12 215 14.5 24.1 0.00 0.00 0.00 96 1013.6
20260504223058 12 182 14.5 25.7 0.00 0.00 0.00 96 1013.6
20260504222544 12 197 12.9 25.7 0.00 0.00 0.00 96 1013.6
20260504222044 12 180 14.5 24.1 0.00 0.00 0.00 96 1013.6
20260504221544 12 207 11.3 19.3 0.00 0.00 0.00 96 1013.8
20260504221044 12 200 11.3 20.9 0.00 0.00 0.00 96 1013.7
20260504220544 12 207 14.5 20.9 0.00 0.00 0.00 96 1013.7
20260504220043 12 188 12.9 22.5 0.00 0.00 0.00 96 1013.8
20260504215547 12 207 12.9 22.5 0.00 0.00 0.00 96 1013.8
20260504215044 12 204 11.3 20.9 0.00 0.00 0.00 96 1013.8
20260504214542 12 194 12.9 19.3 0.00 0.00 0.00 96 1013.8
20260504214048 12 202 11.3 24.1 0.00 0.00 0.00 96 1013.9
20260504213542 12 199 14.5 24.1 0.00 0.00 0.00 96 1013.8
20260504213044 12 194 14.5 20.9 0.00 0.00 0.00 96 1013.8
20260504212545 12 201 14.5 19.3 0.00 0.00 0.00 96 1013.9
20260504212042 12 195 11.3 17.7 0.00 0.00 0.00 96 1013.8
20260504211611 12 197 11.3 17.7 0.00 0.00 0.00 96 1013.9
20260504211040 12 211 11.3 20.9 0.00 0.00 0.00 96 1013.9
20260504210539 12 202 9.7 20.9 0.00 0.00 0.00 96 1013.9
20260504210045 12 202 12.9 25.7 0.00 0.00 0.00 96 1014.0
20260504205539 12 185 14.5 25.7 0.00 0.00 0.00 96 1014.0
20260504205039 12 202 12.9 20.9 0.00 0.00 0.00 97 1014.0
20260504204539 12 192 14.5 20.9 0.00 0.00 0.00 96 1014.0
20260504204039 12 197 14.5 20.9 0.00 0.00 0.00 96 1014.0
20260504203538 12 187 14.5 24.1 0.00 0.00 0.00 97 1014.0
20260504203038 11 168 16.1 24.1 0.00 0.00 0.00 96 1014.2
20260504202538 11 198 12.9 20.9 0.00 0.00 0.00 97 1014.1
20260504202038 11 190 16.1 27.4 0.00 0.00 0.00 96 1014.1
20260504201538 11 193 16.1 19.3 0.00 0.00 0.00 97 1014.2
20260504201038 12 202 9.7 20.9 0.00 0.00 0.00 97 1014.2
20260504200537 11 201 11.3 20.9 0.00 0.00 0.00 97 1014.2
20260504200037 11 202 14.5 20.9 0.00 0.00 0.00 97 1014.2
20260504195536 11 196 12.9 20.9 0.00 0.00 0.00 97 1014.2
20260504195036 11 198 16.1 25.7 0.00 0.00 0.00 97 1014.2
20260504194542 11 182 12.9 25.7 0.00 0.00 0.00 97 1014.1
20260504194037 11 198 14.5 25.7 0.00 0.00 0.00 97 1014.1
20260504193537 11 196 16.1 24.1 0.00 0.00 0.00 97 1014.0
20260504193037 11 200 14.5 24.1 0.00 0.00 0.00 97 1014.0
20260504192537 11 195 14.5 24.1 0.00 0.00 0.00 97 1014.0
20260504192035 11 201 12.9 20.9 0.00 0.00 0.00 97 1014.0
20260504191537 11 202 12.9 25.7 0.00 0.00 0.00 97 1014.0
20260504191034 11 213 16.1 25.7 0.00 0.00 0.00 97 1013.9
20260504190534 11 207 14.5 22.5 0.00 0.00 0.00 97 1013.9
20260504190036 11 204 12.9 22.5 0.00 0.00 0.00 97 1013.9
20260504185533 11 173 11.3 22.5 0.00 0.00 0.00 97 1013.9
20260504185033 11 188 17.7 25.7 0.00 0.00 0.00 97 1013.9
20260504184544 11 197 14.5 25.7 0.00 0.00 0.00 97 1013.9
20260504184035 11 190 19.3 29.0 0.00 0.00 0.00 97 1014.0
20260504183535 11 188 16.1 29.0 0.00 0.00 0.00 97 1014.0
20260504183032 11 200 19.3 29.0 0.00 0.00 0.00 97 1013.9
20260504182530 11 183 22.5 30.6 0.00 0.00 0.00 97 1013.7
20260504182031 11 169 17.7 30.6 0.00 0.00 0.00 97 1013.7
20260504181535 11 198 16.1 27.4 0.00 0.00 0.00 97 1013.7
20260504181030 11 197 20.9 27.4 0.00 0.00 0.00 97 1013.6
20260504180530 11 187 20.9 27.4 0.00 0.00 0.00 97 1013.5
20260504180028 11 201 17.7 25.7 0.00 0.00 0.00 97 1013.5
20260504175528 11 200 14.5 22.5 0.00 0.00 0.00 97 1013.5
20260504175029 11 188 12.9 24.1 0.00 0.00 0.00 97 1013.5
20260504174528 11 207 17.7 25.7 0.00 0.00 0.00 97 1013.5
20260504174028 11 197 12.9 20.9 0.00 0.00 0.00 97 1013.4
20260504173528 11 191 16.1 20.9 0.00 0.00 0.00 97 1013.5
20260504173028 11 193 14.5 20.9 0.00 0.00 0.00 97 1013.5
20260504172528 11 176 11.3 19.3 0.00 0.00 0.00 97 1013.5
20260504172026 11 178 11.3 19.3 0.00 0.00 0.00 97 1013.5
20260504171526 11 192 11.3 17.7 0.00 0.00 0.00 97 1013.5
20260504171027 11 183 12.9 17.7 0.00 0.00 0.00 97 1013.4
20260504170524 11 191 11.3 25.7 0.00 0.00 0.00 97 1013.4
20260504151016 11 182 4.8 12.9 0.00 0.00 0.00 97 1013.0
20260504150516 11 204 3.2 11.3 0.00 0.00 0.00 97 1013.0
20260504141008 11 150 9.7 25.7 0.00 0.00 0.00 97 1012.3
20260504140508 11 142 12.9 25.7 0.00 0.00 0.00 97 1012.3
20260504130501 11 132 14.5 25.7 0.00 0.00 0.00 97 1012.0
20260504110554 11 161 6.4 19.3 0.00 0.00 0.00 98 1011.8
20260504100554 11 188 4.8 14.5 0.00 0.00 0.00 98 1011.7
20260504081540 10 188 12.9 19.3 0.00 0.00 0.00 98 1011.8
20260504081040 10 197 11.3 16.1 0.00 0.00 0.00 98 1011.6
20260504080538 10 188 11.3 17.7 0.00 0.00 0.00 98 1011.6